[[{"header":{"parameterUnit":"m.s-1","parameterCategory":2,"la1":30.2991,"la2":30.254,"lo1":-89.0895,"lo2":-89.0444,"dy":0.0017,"dx":0.0017,"nx":28,"ny":28,"refTime":"2024-03-21T21:00:00:Z","depth":"0","parameterNumber":2,"parameterNumberName":"U-component_of_CURRENTS"},"data":[0,0,0,0,0,0,0,0,0,0,0,0,0,0,0,0,0,0,0,0,0,0,0,0,0,0,0,0,0,0,0,0,0,0,0,0,0,0,0,0,0,0,0,0,0,0,0,0,0,0,0,0,0,0,0,0,0,0,0.3621,0.3622,0,0.3703,0.3704,0.3705,0.374,0.374,0.374,0.374,0.3708,0.3707,0.3706,0,0,0,0,0,0,0,0,0,0,0,0,0,0.3538,0.3539,0.3621,0.3622,0.3623,0.3703,0.3704,0.3705,0.374,0.374,0.374,0.374,0.3708,0.3707,0.3706,0,0,0,0,0,0,0,0,0,0,0,0,0,0.3592,0.3539,0.3621,0.3651,0.3654,0.3703,0.3704,0.3706,0.374,0.374,0.374,0.374,0.3708,0.3707,0.3706,0.3703,0,0,0.3702,0.3702,0,0,0,0,0,0,0,0,0.3589,0.3595,0.3645,0.3649,0.3653,0.3712,0.3663,0.3699,0.374,0.3707,0.374,0.374,0.3699,0.3698,0.3715,0.3701,0.37,0.3702,0.3702,0.3701,0.3701,0,0,0,0,0,0,0,0.3585,0.3592,0.3653,0.3646,0.3651,0.3675,0.3682,0.3671,0.37,0.371,0.3713,0.3723,0.37,0.3716,0.3714,0.3699,0.3702,0.3701,0.3701,0.37,0.3734,0.3735,0,0,0,0,0,0,0.3574,0.3588,0.3651,0.3656,0.362,0.3676,0.3684,0.3693,0.3703,0.3706,0.3723,0.3724,0.3718,0.3716,0.3713,0.3767,0.3701,0.37,0.37,0.3732,0.3734,0.3736,0,0,0,0,0,0,0.3571,0.3578,0.3648,0.3624,0.3635,0.3677,0.3687,0.3694,0.371,0.3714,0.3714,0.3731,0.3718,0.3715,0.3716,0.3763,0.37,0.3699,0.373,0.3733,0.3735,0.3836,0,0,0,0,0,0,0.3569,0.3577,0.3576,0.3623,0.3636,0.3678,0.3688,0.3696,0.3717,0.3719,0.3721,0.3719,0.3718,0.3718,0.3715,0.376,0.3698,0.3728,0.3731,0.3734,0.383,0.3841,0.385,0,0,0,0,0,0.3565,0.357,0.3576,0.3583,0.3634,0.3678,0.3687,0.3716,0.3717,0.3729,0.3735,0.3718,0.3735,0.3718,0.3714,0.376,0.3727,0.373,0.3734,0.3826,0.3839,0.385,0,0,0,0,0,0,0.3534,0.3575,0.3583,0.3599,0.3634,0.3684,0.3699,0.3714,0.3731,0.3732,0.3727,0.3725,0.3756,0.3731,0.3713,0.3779,0.3732,0.3735,0.3804,0.3816,0.3826,0.3835,0.3697,0,0,0,0,0,0.3526,0.3541,0.3582,0.3597,0.3613,0.3653,0.3672,0.3696,0.372,0.3728,0.3728,0.3736,0.3769,0.3768,0.3781,0.3796,0.3782,0.3826,0.3836,0.3844,0.3849,0.388,0.3893,0.3747,0.3747,0.3747,0,0,0.3517,0.3543,0.355,0.3591,0.3621,0.3659,0.3665,0.3701,0.3736,0.3718,0.3749,0.3768,0.3781,0.3825,0.3834,0.3806,0.3877,0.3849,0.3857,0.3857,0.3885,0.3899,0.3912,0.375,0.3749,0.3749,0,0,0.352,0.3531,0.355,0.3583,0.363,0.3661,0.3668,0.3714,0.3737,0.377,0.3789,0.383,0.3839,0.3884,0.3904,0.3966,0.3936,0.3968,0.4019,0.405,0.4062,0.4073,0.4069,0.4078,0.3966,0.3966,0.3966,0,0.35,0.3533,0.3562,0.3598,0.3622,0.366,0.369,0.3732,0.3771,0.3792,0.3785,0.3867,0.388,0.3964,0.4006,0.3993,0.3986,0.3977,0.4064,0.4074,0.4084,0.4077,0.4086,0.3971,0.3971,0.397,0.397,0,0.3535,0.3554,0.3571,0.3625,0.3659,0.3689,0.3748,0.3778,0.3803,0.3844,0.3917,0.3955,0.3999,0.4032,0.4044,0.4132,0.4098,0.4081,0.4036,0.4105,0.4092,0.41,0.3979,0.3977,0.3976,0.3974,0,0,0.3486,0.3571,0.3571,0.3595,0.3669,0.3698,0.3763,0.3825,0.387,0.3925,0.398,0.4081,0.41,0.4126,0.4156,0.4201,0.4276,0.4175,0.4174,0.4174,0.4319,0.4209,0.4206,0.4275,0.4277,0.4278,0.4281,0,0.3489,0.3545,0.3592,0.3639,0.367,0.3726,0.378,0.385,0.3909,0.3972,0.4047,0.4117,0.4138,0.4175,0.4228,0.4273,0.4301,0.4274,0.4248,0.4247,0.4144,0.4214,0.4056,0.4038,0.4289,0.429,0.4291,0,0.35,0.3533,0.3579,0.3641,0.3657,0.3696,0.3778,0.384,0.3952,0.3998,0.4089,0.4144,0.4251,0.4242,0.4342,0.4322,0.4326,0.4348,0.4348,0.4215,0.4152,0.401,0.4042,0.4015,0.4302,0.4301,0.43,0,0.3455,0.3515,0.3543,0.3569,0.3657,0.3681,0.3728,0.384,0.3901,0.4025,0.4077,0.4192,0.4245,0.4304,0.4366,0.4355,0.4445,0.4422,0.4319,0.431,0.4154,0.4127,0.4157,0.4467,0.4467,0.4467,0.4467,0,0.3441,0.3461,0.3519,0.354,0.357,0.3646,0.3703,0.3779,0.3892,0.3963,0.4084,0.4153,0.4266,0.4334,0.4374,0.4373,0.4443,0.4339,0.4314,0.4181,0.4158,0.4106,0.4103,0.4467,0.4467,0.4467,0.4467,0,0.3414,0.3449,0.3484,0.3545,0.3558,0.3588,0.3676,0.3722,0.3841,0.3937,0.3979,0.4131,0.4218,0.4309,0.4395,0.4357,0.4274,0.4358,0.418,0.4133,0.3975,0.3982,0.3772,0.366,0.4233,0.423,0.4228,0,0.3407,0.3423,0.3473,0.3471,0.3496,0.3539,0.3564,0.3685,0.3736,0.3916,0.3944,0.4077,0.4145,0.4228,0.4211,0.4229,0.4178,0.4058,0.401,0.3955,0.3947,0.3796,0.3707,0.3843,0.3838,0.3834,0.383,0,0.3378,0.3399,0.3423,0.3415,0.3424,0.3455,0.3496,0.3536,0.3673,0.3735,0.3824,0.3905,0.4001,0.3957,0.3983,0.3976,0.3878,0.3966,0.3972,0.3697,0.3472,0.3354,0.3843,0.3793,0.3797,0.38,0.3802,0.3803,0.3326,0.3328,0.3326,0.3315,0.3323,0.332,0.3293,0.3352,0.3391,0.3433,0.3607,0.3634,0.3723,0.3738,0.3705,0.3593,0.3592,0.352,0.3549,0.3412,0.3251,0.3638,0.3521,0.3523,0.3525,0.3527,0.3528,0,0.318,0.3187,0.3199,0.3145,0.3088,0.3156,0.3181,0.3126,0.3075,0.3193,0.3213,0.3297,0.3283,0.3363,0.3342,0.3237,0.3057,0.3185,0.299,0.2936,0.335,0.3286,0.3038,0.3038,0.3038,0.3038,0.3038,0.3038,0.3083,0.3021,0.3033,0.2881,0.2856,0.2735,0.2719,0.2695,0.2734,0.272,0.2751,0.2863,0.3146,0.3229,0.317,0.3074,0.2897,0.2719,0.2753,0.3148,0.3183,0.3216,0.3159,0.2887,0.2887,0.2183,0.2179,0.2175]},{"header":{"parameterUnit":"m.s-1","parameterCategory":2,"la1":30.2991,"la2":30.254,"lo1":-89.0895,"lo2":-89.0444,"dy":0.0017,"dx":0.0017,"nx":28,"ny":28,"refTime":"2024-03-21T21:00:00:Z","depth":"0","parameterNumber":3,"parameterNumberName":"V-component_of_CURRENTS"},"data":[0,0,0,0,0,0,0,0,0,0,0,0,0,0,0,0,0,0,0,0,0,0,0,0,0,0,0,0,0,0,0,0,0,0,0,0,0,0,0,0,0,0,0,0,0,0,0,0,0,0,0,0,0,0,0,0,0,0,-0.0411,-0.0413,0,-0.0517,-0.0518,-0.0519,-0.0585,-0.0585,-0.0586,-0.0586,-0.0578,-0.0578,-0.0577,0,0,0,0,0,0,0,0,0,0,0,0,0,-0.0343,-0.0344,-0.0411,-0.0413,-0.0414,-0.0516,-0.0518,-0.0519,-0.0585,-0.0585,-0.0586,-0.0586,-0.0578,-0.0578,-0.0577,0,0,0,0,0,0,0,0,0,0,0,0,0,-0.0402,-0.0344,-0.0411,-0.046,-0.0465,-0.0516,-0.0518,-0.0519,-0.0585,-0.0585,-0.0586,-0.0587,-0.0579,-0.0578,-0.0577,-0.0557,0,0,-0.0574,-0.0574,0,0,0,0,0,0,0,0,-0.0398,-0.0404,-0.0451,-0.0457,-0.0463,-0.0539,-0.0491,-0.0527,-0.0585,-0.0538,-0.0586,-0.0587,-0.0555,-0.0556,-0.0574,-0.0557,-0.0557,-0.0574,-0.0573,-0.0573,-0.0573,0,0,0,0,0,0,0,-0.0394,-0.0401,-0.0452,-0.0453,-0.046,-0.0503,-0.0511,-0.0499,-0.0539,-0.0542,-0.0548,-0.0561,-0.0557,-0.0575,-0.0574,-0.0557,-0.0574,-0.0573,-0.0572,-0.0572,-0.0504,-0.0502,0,0,0,0,0,0,-0.0378,-0.0396,-0.0449,-0.0455,-0.0433,-0.0503,-0.0512,-0.0513,-0.0541,-0.0548,-0.056,-0.0563,-0.0577,-0.0575,-0.0574,-0.0523,-0.0573,-0.0572,-0.0571,-0.0505,-0.0503,-0.0502,0,0,0,0,0,0,-0.0376,-0.0381,-0.0445,-0.043,-0.0441,-0.0503,-0.0504,-0.0515,-0.0529,-0.0556,-0.056,-0.0562,-0.0577,-0.0575,-0.055,-0.0524,-0.0572,-0.0571,-0.0506,-0.0504,-0.0503,-0.0438,0,0,0,0,0,0,-0.0373,-0.038,-0.0373,-0.0428,-0.0441,-0.045,-0.0504,-0.0517,-0.0537,-0.0542,-0.0559,-0.056,-0.0578,-0.0551,-0.0549,-0.0523,-0.057,-0.0508,-0.0505,-0.0503,-0.0442,-0.0434,-0.0428,0,0,0,0,0,-0.037,-0.0355,-0.0371,-0.0378,-0.043,-0.0449,-0.0458,-0.0506,-0.0536,-0.0524,-0.0542,-0.0559,-0.0535,-0.0549,-0.0547,-0.052,-0.0509,-0.0506,-0.0503,-0.0445,-0.0436,-0.0428,0,0,0,0,0,0,-0.0329,-0.0363,-0.0381,-0.0379,-0.0401,-0.046,-0.0463,-0.0495,-0.0505,-0.0508,-0.0538,-0.0539,-0.051,-0.0519,-0.0534,-0.0494,-0.0526,-0.0523,-0.0482,-0.0474,-0.0467,-0.045,-0.0569,0,0,0,0,0,-0.0314,-0.0305,-0.0347,-0.0342,-0.0351,-0.0404,-0.042,-0.0446,-0.0469,-0.0477,-0.0487,-0.0496,-0.0497,-0.0489,-0.0487,-0.0456,-0.0472,-0.044,-0.0433,-0.0427,-0.0411,-0.0419,-0.0411,-0.0493,-0.0493,-0.0493,0,0,-0.0298,-0.0315,-0.0311,-0.0331,-0.0358,-0.0348,-0.0414,-0.0424,-0.0413,-0.0468,-0.0444,-0.0466,-0.0484,-0.0458,-0.0446,-0.0461,-0.0411,-0.0423,-0.0418,-0.0405,-0.0415,-0.0408,-0.0401,-0.0491,-0.0491,-0.0492,0,0,-0.0251,-0.0273,-0.0246,-0.0256,-0.028,-0.0305,-0.03,-0.0339,-0.0354,-0.0335,-0.0379,-0.0384,-0.0373,-0.039,-0.0398,-0.0346,-0.0375,-0.0345,-0.0291,-0.0299,-0.0293,-0.0287,-0.0297,-0.0293,-0.034,-0.034,-0.034,0,-0.0224,-0.0203,-0.0241,-0.0218,-0.0218,-0.0275,-0.0243,-0.0263,-0.0284,-0.0284,-0.0308,-0.0321,-0.0341,-0.0329,-0.0321,-0.033,-0.0339,-0.0324,-0.029,-0.0285,-0.0281,-0.0292,-0.0289,-0.0336,-0.0337,-0.0337,-0.0337,0,-0.016,-0.0142,-0.0128,-0.011,-0.0111,-0.0094,-0.0123,-0.0119,-0.0145,-0.0167,-0.016,-0.0203,-0.0209,-0.0225,-0.0258,-0.0237,-0.0256,-0.0284,-0.0313,-0.0269,-0.0284,-0.0281,-0.0331,-0.0333,-0.0334,-0.0334,0,0,-0.0095,-0.0081,-0.0073,-0.0046,-0.0052,-0.004,-0.0019,-0.0014,0.0001,-0.0027,-0.0002,-0.0043,-0.0081,-0.0093,-0.0143,-0.0162,-0.0153,-0.0203,-0.0205,-0.0213,-0.0166,-0.0188,-0.0188,-0.0175,-0.0174,-0.0173,-0.019,0,-0.0028,0.0042,0.0029,0.0101,0.0131,0.0096,0.0125,0.012,0.0099,0.0115,0.0053,0.006,-0.0026,-0.003,-0.0062,-0.0125,-0.0141,-0.0145,-0.0206,-0.0208,-0.0234,-0.0184,-0.0158,-0.0171,-0.0188,-0.0187,-0.0187,0,0.0044,0.008,0.0161,0.0205,0.0217,0.0255,0.0283,0.03,0.0287,0.027,0.0246,0.0199,0.0168,0.0092,0.0005,0.0008,-0.0064,-0.0126,-0.0128,-0.0166,-0.0224,-0.0217,-0.0166,-0.0331,-0.0183,-0.0184,-0.0184,0,0.0113,0.0177,0.0249,0.0264,0.0302,0.0336,0.0359,0.0353,0.0378,0.0374,0.0398,0.0331,0.0323,0.022,0.0079,0.0053,-0.0014,-0.0067,-0.0155,-0.0158,-0.0155,-0.0159,-0.027,-0.0113,-0.0113,-0.0112,-0.0112,0,0.019,0.0246,0.0291,0.0331,0.0419,0.0416,0.0496,0.0494,0.0515,0.0574,0.0491,0.0521,0.0356,0.0288,0.0143,0.0009,0.0036,-0.0127,-0.0156,-0.0133,-0.0134,-0.0296,-0.0396,-0.0113,-0.0113,-0.0113,-0.0113,0,0.025,0.0278,0.0361,0.0425,0.0454,0.0517,0.0594,0.0645,0.0649,0.0727,0.0741,0.0682,0.0592,0.0415,0.0254,0.0108,-0.0123,-0.0087,-0.0051,-0.0075,-0.0322,-0.0419,-0.0544,-0.0633,-0.0178,-0.0178,-0.0179,0,0.0291,0.0342,0.0435,0.0496,0.0533,0.0621,0.0686,0.0711,0.0773,0.0829,0.0887,0.0827,0.0806,0.0555,0.0288,0.0051,-0.0125,-0.0093,-0.0147,-0.0316,-0.0445,-0.0515,-0.0586,-0.0119,-0.0119,-0.0119,-0.0119,0,0.0371,0.04,0.0468,0.0586,0.0675,0.0765,0.0865,0.0934,0.0982,0.1056,0.1132,0.1125,0.0892,0.0658,0.0318,0.0144,-0.021,-0.01,-0.0276,-0.0402,-0.048,-0.0585,-0.014,-0.0118,-0.0118,-0.0118,-0.0118,-0.0118,0.0439,0.0491,0.0584,0.0693,0.0788,0.0903,0.0991,0.1102,0.1223,0.134,0.1318,0.1349,0.1005,0.0548,0.0272,-0.0198,-0.0225,-0.0346,-0.0446,-0.0499,-0.0595,-0.0151,-0.0167,-0.0168,-0.0168,-0.0168,-0.0168,0,0.0534,0.0589,0.0692,0.0818,0.0919,0.0953,0.1106,0.1201,0.1364,0.148,0.1547,0.143,0.0987,0.0533,-0.01,-0.0468,-0.0606,-0.0674,-0.0769,-0.0826,-0.042,-0.043,-0.0501,-0.0501,-0.0501,-0.0501,-0.0501,-0.05,0.0594,0.0704,0.0741,0.0914,0.0992,0.1129,0.1215,0.1367,0.1486,0.1646,0.1697,0.1701,0.1411,0.0215,-0.0607,-0.0809,-0.1077,-0.1129,-0.1292,-0.1024,-0.1001,-0.0979,-0.1012,-0.1205,-0.1206,-0.1638,-0.1642,-0.1646]}],[{"header":{"parameterUnit":"m.s-1","parameterCategory":2,"la1":30.2991,"la2":30.254,"lo1":-89.0895,"lo2":-89.0444,"dy":0.0017,"dx":0.0017,"nx":28,"ny":28,"refTime":"2024-03-21T21:00:00:Z","depth":"2","parameterNumber":2,"parameterNumberName":"U-component_of_CURRENTS"},"data":[0,0,0,0,0,0,0,0,0,0,0,0,0,0,0,0,0,0,0,0,0,0,0,0,0,0,0,0,0,0,0,0,0,0,0,0,0,0,0,0,0,0,0,0,0,0,0,0,0,0,0,0,0,0,0,0,0,0,0.2867,0.2867,0,0.289,0.289,0.289,0.2938,0.2939,0.294,0.294,0.3034,0.3036,0.3037,0,0,0,0,0,0,0,0,0,0,0,0,0,0.2837,0.2838,0.2867,0.2867,0.2867,0.2889,0.289,0.289,0.2938,0.2939,0.294,0.2941,0.3034,0.3036,0.3038,0,0,0,0,0,0,0,0,0,0,0,0,0,0.2856,0.2838,0.2867,0.2892,0.2895,0.2889,0.289,0.2891,0.2938,0.2939,0.294,0.2941,0.3033,0.3035,0.3038,0.3029,0,0,0.3046,0.3047,0,0,0,0,0,0,0,0,0.2854,0.2857,0.2888,0.289,0.2893,0.2911,0.2914,0.294,0.2937,0.2923,0.294,0.2942,0.2998,0.3003,0.3006,0.3034,0.3038,0.3046,0.3048,0.3049,0.3049,0,0,0,0,0,0,0,0.2853,0.2856,0.2877,0.2888,0.2891,0.2893,0.2898,0.2919,0.2956,0.2924,0.2927,0.2927,0.3,0.3003,0.3009,0.3039,0.3046,0.3048,0.305,0.3051,0.3194,0.3196,0,0,0,0,0,0,0.2847,0.2855,0.2876,0.2878,0.2875,0.2893,0.2898,0.2905,0.2954,0.2961,0.2926,0.2929,0.2998,0.3005,0.3012,0.3135,0.3049,0.3051,0.3053,0.3192,0.3194,0.3197,0,0,0,0,0,0,0.2847,0.2849,0.2875,0.2865,0.2868,0.2892,0.29,0.2905,0.2952,0.2954,0.2964,0.2972,0.2999,0.3008,0.3048,0.3135,0.3052,0.3055,0.3189,0.3193,0.3196,0.3298,0,0,0,0,0,0,0.2846,0.2849,0.2865,0.2865,0.2869,0.2893,0.2899,0.2904,0.2946,0.2952,0.2996,0.3003,0.3001,0.3044,0.3051,0.3137,0.3057,0.3186,0.3191,0.3195,0.3292,0.3305,0.3316,0,0,0,0,0,0.2845,0.2859,0.2866,0.2869,0.2886,0.2893,0.2896,0.2917,0.2948,0.2966,0.2991,0.3004,0.3078,0.3047,0.3054,0.3143,0.3184,0.3189,0.3194,0.3287,0.3302,0.3315,0,0,0,0,0,0,0.2851,0.2865,0.2873,0.289,0.29,0.2901,0.2924,0.2943,0.2978,0.2998,0.3011,0.3019,0.3099,0.3092,0.3059,0.3196,0.3143,0.315,0.3211,0.3226,0.3237,0.3263,0.3059,0,0,0,0,0,0.2858,0.2881,0.2883,0.2901,0.2911,0.2928,0.2942,0.2957,0.2978,0.2998,0.3028,0.3069,0.3118,0.3146,0.3176,0.3232,0.3217,0.3301,0.3312,0.3322,0.3348,0.3366,0.3381,0.3214,0.3213,0.3213,0,0,0.2852,0.2876,0.288,0.2905,0.2921,0.2948,0.2942,0.2974,0.3016,0.3001,0.3082,0.3111,0.3141,0.3213,0.3251,0.3223,0.336,0.3329,0.3337,0.3358,0.3373,0.3389,0.3403,0.3217,0.3216,0.3216,0,0,0.2868,0.289,0.2917,0.2941,0.2975,0.2982,0.3004,0.303,0.3066,0.3124,0.3144,0.3218,0.3273,0.332,0.335,0.3443,0.3423,0.3465,0.3549,0.3566,0.3579,0.3591,0.3581,0.3591,0.347,0.347,0.347,0,0.2873,0.2902,0.2923,0.297,0.2987,0.301,0.3037,0.3081,0.3122,0.3155,0.3167,0.3298,0.3336,0.3439,0.3488,0.3479,0.346,0.3492,0.3581,0.3593,0.3603,0.3589,0.3599,0.3475,0.3475,0.3474,0.3474,0,0.2911,0.2942,0.2965,0.303,0.3055,0.308,0.3126,0.3172,0.3224,0.3268,0.3383,0.3431,0.3508,0.3553,0.3562,0.3675,0.3626,0.3592,0.3543,0.3626,0.3606,0.3615,0.3483,0.3481,0.348,0.3478,0,0,0.289,0.297,0.2978,0.3012,0.3084,0.3103,0.3182,0.3239,0.3299,0.3392,0.3479,0.3616,0.3656,0.3693,0.3723,0.3769,0.3846,0.3728,0.3726,0.3715,0.3858,0.375,0.3748,0.3814,0.3817,0.3819,0.3809,0,0.2907,0.298,0.3016,0.3078,0.3111,0.3157,0.3228,0.3302,0.3362,0.3455,0.3566,0.3672,0.3705,0.3761,0.3818,0.384,0.3875,0.3851,0.3782,0.3781,0.3673,0.3758,0.3477,0.3438,0.3816,0.3818,0.3819,0,0.2933,0.2975,0.3034,0.3101,0.3119,0.3171,0.3254,0.3319,0.3452,0.3516,0.3637,0.3711,0.3856,0.385,0.3941,0.3915,0.3913,0.3917,0.3915,0.379,0.369,0.342,0.3439,0.3832,0.3831,0.383,0.3829,0,0.2906,0.2981,0.3023,0.3054,0.3147,0.3187,0.3234,0.3345,0.3411,0.3565,0.3635,0.3778,0.3865,0.3909,0.3961,0.3949,0.4013,0.3974,0.3869,0.3859,0.3598,0.3561,0.4025,0.4025,0.4025,0.4025,0.4025,0,0.2904,0.293,0.3023,0.3052,0.3106,0.3186,0.325,0.3326,0.3456,0.3537,0.3677,0.3756,0.3886,0.3941,0.3966,0.3948,0.401,0.391,0.3865,0.3623,0.3591,0.3914,0.3901,0.4025,0.4025,0.4025,0.4025,0,0.2859,0.292,0.2976,0.3073,0.3101,0.3149,0.3245,0.3306,0.343,0.3534,0.3604,0.3764,0.3833,0.3912,0.397,0.3933,0.3938,0.3904,0.361,0.3532,0.3766,0.3759,0.3788,0.3785,0.3782,0.3779,0.3777,0,0.2853,0.2887,0.2979,0.3019,0.306,0.3128,0.3183,0.3297,0.3343,0.3514,0.356,0.3693,0.3731,0.378,0.3768,0.3763,0.3863,0.3472,0.3419,0.3796,0.375,0.3747,0.3744,0.3102,0.3095,0.3089,0.3084,0,0.2825,0.2863,0.2903,0.2965,0.3029,0.3073,0.3136,0.3165,0.3294,0.3352,0.3411,0.3464,0.3542,0.3414,0.3437,0.3401,0.3458,0.3346,0.3813,0.3214,0.3151,0.3105,0.3124,0.3029,0.3035,0.3039,0.3042,0.3044,0.2806,0.2811,0.2852,0.2891,0.2959,0.2972,0.294,0.2996,0.301,0.3028,0.3169,0.3119,0.3168,0.3052,0.2964,0.2916,0.3164,0.3018,0.3036,0.306,0.2992,0.2928,0.275,0.2753,0.2756,0.2759,0.2762,0,0.2701,0.2709,0.2766,0.2768,0.2757,0.2839,0.2864,0.2782,0.2689,0.2765,0.2749,0.2525,0.2458,0.2522,0.2372,0.2375,0.2348,0.2269,0.2215,0.2272,0.2322,0.2215,0.1767,0.1763,0.176,0.1757,0,0,0.2648,0.2604,0.2599,0.2514,0.2548,0.2466,0.2444,0.2364,0.2342,0.2213,0.2156,0.2326,0.2431,0.2053,0.2024,0.1866,0.2043,0.1786,0.2592,0.2586,0.2631,0.2773,0.2675,0,0,0,0,0]},{"header":{"parameterUnit":"m.s-1","parameterCategory":2,"la1":30.2991,"la2":30.254,"lo1":-89.0895,"lo2":-89.0444,"dy":0.0017,"dx":0.0017,"nx":28,"ny":28,"refTime":"2024-03-21T21:00:00:Z","depth":"2","parameterNumber":3,"parameterNumberName":"V-component_of_CURRENTS"},"data":[0,0,0,0,0,0,0,0,0,0,0,0,0,0,0,0,0,0,0,0,0,0,0,0,0,0,0,0,0,0,0,0,0,0,0,0,0,0,0,0,0,0,0,0,0,0,0,0,0,0,0,0,0,0,0,0,0,0,0.0121,0.0121,0,0.0093,0.0093,0.0092,0.0035,0.0034,0.0033,0.0032,-0.0068,-0.007,-0.0072,0,0,0,0,0,0,0,0,0,0,0,0,0,0.0112,0.0112,0.0121,0.0121,0.0121,0.0093,0.0093,0.0092,0.0035,0.0034,0.0033,0.0032,-0.0068,-0.007,-0.0072,0,0,0,0,0,0,0,0,0,0,0,0,0,0.01,0.0112,0.0121,0.0092,0.0089,0.0093,0.0093,0.0092,0.0035,0.0034,0.0033,0.0032,-0.0067,-0.007,-0.0072,-0.0065,0,0,-0.0081,-0.0082,0,0,0,0,0,0,0,0,0.0101,0.01,0.0096,0.0094,0.0091,0.0069,0.0052,0.0037,0.0036,0.0052,0.0032,0.0031,-0.0026,-0.0032,-0.0038,-0.0069,-0.0074,-0.0081,-0.0083,-0.0084,-0.0085,0,0,0,0,0,0,0,0.0102,0.0101,0.0107,0.0097,0.0093,0.0075,0.0072,0.0049,0.0017,0.0051,0.0047,0.005,-0.0029,-0.0035,-0.0041,-0.0075,-0.0081,-0.0084,-0.0086,-0.0087,-0.013,-0.0129,0,0,0,0,0,0,0.0114,0.0102,0.0108,0.0106,0.0096,0.0077,0.0073,0.0075,0.0018,0.001,0.0051,0.0047,-0.003,-0.0038,-0.0045,-0.0054,-0.0084,-0.0087,-0.0089,-0.013,-0.013,-0.0129,0,0,0,0,0,0,0.0114,0.0115,0.0109,0.0106,0.0104,0.0079,0.0081,0.0075,0.0051,0.002,0.0009,0.0031,-0.0031,-0.0041,-0.0059,-0.0058,-0.0088,-0.0091,-0.0131,-0.013,-0.0129,-0.0063,0,0,0,0,0,0,0.0114,0.0115,0.0119,0.0107,0.0105,0.0112,0.0082,0.0075,0.0057,0.0051,-0.0,-0.001,-0.0033,-0.0054,-0.0062,-0.0063,-0.0093,-0.0132,-0.0131,-0.013,-0.0066,-0.006,-0.0055,0,0,0,0,0,0.0113,0.013,0.012,0.012,0.0112,0.0113,0.011,0.0085,0.0057,0.0055,0.0028,-0.0009,-0.0054,-0.0055,-0.0065,-0.0067,-0.0132,-0.0131,-0.013,-0.0069,-0.0062,-0.0055,0,0,0,0,0,0,0.0127,0.0126,0.0114,0.0128,0.012,0.0104,0.0107,0.008,0.0057,0.0045,0.0004,-0.0006,-0.0026,-0.0051,-0.0052,-0.0076,-0.0102,-0.0102,-0.0052,-0.0046,-0.0041,-0.0024,-0.0095,0,0,0,0,0,0.0135,0.0141,0.0136,0.0143,0.0146,0.0121,0.0115,0.0095,0.0076,0.0062,0.0031,-0.0002,-0.0024,-0.0038,-0.0063,-0.0069,-0.0093,-0.0079,-0.0073,-0.0068,-0.006,-0.0082,-0.0077,-0.0125,-0.0125,-0.0125,0,0,0.0152,0.0141,0.0152,0.0146,0.0138,0.0155,0.0113,0.0107,0.011,0.0056,0.0049,0.0012,-0.0023,-0.0029,-0.0041,-0.0052,-0.0067,-0.0067,-0.0062,-0.0057,-0.008,-0.0075,-0.0071,-0.0124,-0.0124,-0.0124,0,0,0.0184,0.0171,0.0193,0.0188,0.0176,0.0168,0.0164,0.0146,0.0127,0.0117,0.008,0.0051,0.0016,-0.0001,-0.0017,0.0004,-0.0041,-0.0012,0.0032,0.0012,0.0015,0.0019,-0.0003,-0.0003,-0.0005,-0.0005,-0.0005,0,0.0194,0.0221,0.0199,0.0212,0.0222,0.0177,0.0207,0.0187,0.0161,0.0157,0.0121,0.0074,0.0031,0.0032,0.0036,0.0015,-0.0001,0.0011,0.002,0.0022,0.0024,0.0001,0.0001,-0.0002,-0.0002,-0.0002,-0.0003,0,0.0248,0.0265,0.0276,0.0283,0.029,0.0302,0.0286,0.0276,0.0241,0.0219,0.0196,0.0145,0.0118,0.0095,0.0068,0.0066,0.0049,0.0026,0.0005,0.0033,0.0006,0.0005,0.0003,0.0002,0.0001,0.0,0,0,0.0284,0.0311,0.0315,0.0337,0.0327,0.0343,0.0351,0.0358,0.0368,0.0311,0.0321,0.0259,0.0215,0.0195,0.0151,0.0128,0.0114,0.0088,0.0086,0.0072,0.0072,0.0049,0.0045,0.0097,0.0097,0.0097,0.0049,0,0.0331,0.0384,0.0385,0.0441,0.0475,0.0448,0.0468,0.0457,0.0433,0.0427,0.0352,0.0335,0.0259,0.0244,0.0207,0.0142,0.0114,0.013,0.0044,0.0041,0.0021,0.0044,0.0071,0.0029,0.0047,0.0047,0.0047,0,0.039,0.0416,0.0486,0.0531,0.0545,0.0568,0.0599,0.061,0.0583,0.0555,0.0514,0.0455,0.0403,0.0332,0.0231,0.0247,0.0165,0.0106,0.0102,0.0058,0.0015,0.0003,0.0025,0.0044,0.0044,0.0044,0.0044,0,0.0441,0.0492,0.0552,0.0564,0.0602,0.0627,0.0648,0.0648,0.0671,0.0638,0.0643,0.056,0.0526,0.0416,0.0272,0.0256,0.0163,0.0124,0.0027,0.0024,0.0018,0.0015,0.0054,0.0054,0.0054,0.0055,0.0055,0,0.0498,0.0551,0.0578,0.061,0.0681,0.0686,0.0759,0.0754,0.0765,0.0811,0.0713,0.0725,0.0547,0.0466,0.032,0.0174,0.0195,0.0041,0.0013,0.0041,0.0041,0.0028,0.0026,0.0053,0.0053,0.0053,0.0054,0,0.0565,0.0579,0.0651,0.0694,0.0709,0.0764,0.0834,0.0881,0.0878,0.0936,0.0928,0.085,0.0741,0.0564,0.039,0.025,0.0102,0.0043,0.0085,0.0062,-0.0037,-0.0035,-0.0067,-0.0068,-0.0069,-0.007,-0.007,0,0.0606,0.0645,0.071,0.0747,0.0772,0.0846,0.0894,0.0923,0.0986,0.1023,0.1057,0.0971,0.0922,0.0652,0.0394,0.0148,0.0106,0.0005,-0.0032,-0.0023,-0.0047,-0.0044,-0.0041,-0.0014,-0.0014,-0.0015,-0.0015,0,0.0685,0.0703,0.0757,0.0828,0.0886,0.0967,0.1047,0.1112,0.1163,0.1216,0.1264,0.1228,0.0975,0.0725,0.038,0.0213,0.0043,-0.0006,0.0005,0.0011,0.0022,-0.0,0.0002,-0.0016,-0.0016,-0.0016,-0.0016,-0.0016,0.0732,0.0785,0.0841,0.0916,0.0979,0.1073,0.1157,0.125,0.1359,0.144,0.1411,0.136,0.1083,0.0636,0.034,0.0025,0.0042,-0.0073,-0.0071,-0.0069,-0.0055,-0.0047,-0.0095,-0.0095,-0.0095,-0.0096,-0.0096,0,0.0787,0.0844,0.0919,0.1008,0.1084,0.1108,0.1243,0.133,0.1469,0.1525,0.1556,0.1296,0.1009,0.0677,0.0214,-0.0056,-0.0075,-0.0148,-0.0111,-0.0106,-0.0103,-0.0091,-0.0141,-0.0142,-0.0143,-0.0144,0,0,0.0817,0.0906,0.095,0.1078,0.1131,0.1247,0.1325,0.1451,0.153,0.1589,0.1556,0.1487,0.1099,0.0755,0.0391,0.0117,0.0065,0.0064,0.0134,0.0227,0.0233,-0.0022,0.0007,0,0,0,0,0]}],[{"header":{"parameterUnit":"m.s-1","parameterCategory":2,"la1":30.2991,"la2":30.254,"lo1":-89.0895,"lo2":-89.0444,"dy":0.0017,"dx":0.0017,"nx":28,"ny":28,"refTime":"2024-03-21T21:00:00:Z","depth":"4","parameterNumber":2,"parameterNumberName":"U-component_of_CURRENTS"},"data":[0,0,0,0,0,0,0,0,0,0,0,0,0,0,0,0,0,0,0,0,0,0,0,0,0,0,0,0,0,0,0,0,0,0,0,0,0,0,0,0,0,0,0,0,0,0,0,0,0,0,0,0,0,0,0,0,0,0,0.1245,0.1245,0,0.1259,0.1259,0.1259,0.131,0.1312,0.1313,0.1315,0.138,0.138,0.1381,0,0,0,0,0,0,0,0,0,0,0,0,0,0.1169,0.1171,0.1245,0.1245,0.1246,0.1259,0.1259,0.1259,0.131,0.1312,0.1313,0.1315,0.138,0.138,0.1381,0,0,0,0,0,0,0,0,0,0,0,0,0,0.1191,0.1171,0.1244,0.1276,0.1279,0.1259,0.1259,0.1258,0.1309,0.1312,0.1314,0.1316,0.138,0.138,0.1381,0.1337,0,0,0.1382,0.1382,0,0,0,0,0,0,0,0,0.119,0.1193,0.1271,0.1274,0.1277,0.1289,0.1257,0.1289,0.1309,0.1293,0.1315,0.1317,0.1355,0.1358,0.1349,0.134,0.1343,0.1382,0.1382,0.1383,0.1383,0,0,0,0,0,0,0,0.1188,0.1192,0.1246,0.1271,0.1275,0.1258,0.1264,0.1262,0.1309,0.1295,0.13,0.1307,0.1357,0.1348,0.1351,0.1344,0.1382,0.1383,0.1383,0.1383,0.1475,0.1477,0,0,0,0,0,0,0.1197,0.1192,0.1246,0.1247,0.1243,0.1258,0.1264,0.1279,0.1308,0.1315,0.1305,0.131,0.1346,0.135,0.1354,0.1461,0.1383,0.1383,0.1383,0.1473,0.1475,0.1478,0,0,0,0,0,0,0.1196,0.1202,0.1245,0.1222,0.1227,0.1258,0.1273,0.1278,0.1317,0.1316,0.1324,0.1345,0.1348,0.1353,0.1421,0.1458,0.1383,0.1384,0.147,0.1474,0.1477,0.1575,0,0,0,0,0,0,0.1193,0.1201,0.1226,0.1223,0.1229,0.1271,0.1272,0.1277,0.1317,0.1324,0.1351,0.1357,0.135,0.1421,0.1422,0.1457,0.1384,0.1468,0.1472,0.1476,0.1569,0.1581,0.1591,0,0,0,0,0,0.1191,0.1202,0.1227,0.1234,0.1258,0.1273,0.1275,0.13,0.1317,0.1341,0.1382,0.1359,0.1447,0.1424,0.1424,0.146,0.1466,0.1471,0.1475,0.1563,0.1578,0.1591,0,0,0,0,0,0,0.1177,0.1209,0.1236,0.1258,0.1288,0.1284,0.1305,0.1321,0.1365,0.1387,0.1389,0.1398,0.1476,0.1453,0.1427,0.15,0.145,0.1455,0.1517,0.153,0.1541,0.1527,0.1384,0,0,0,0,0,0.1187,0.1214,0.1241,0.1267,0.1285,0.1304,0.1318,0.134,0.1369,0.1392,0.1423,0.1452,0.1482,0.15,0.1525,0.1554,0.1552,0.1577,0.1588,0.1598,0.1588,0.1634,0.1649,0.1494,0.1494,0.1494,0,0,0.1194,0.1212,0.1232,0.1268,0.129,0.1326,0.1319,0.1355,0.1401,0.139,0.148,0.1504,0.1506,0.1562,0.159,0.1553,0.1648,0.1604,0.1612,0.1597,0.1641,0.1656,0.1669,0.1497,0.1497,0.1496,0,0,0.1207,0.1237,0.127,0.1297,0.1344,0.1358,0.1383,0.1421,0.1461,0.1537,0.1549,0.158,0.1647,0.1633,0.1635,0.171,0.172,0.175,0.1779,0.1826,0.1839,0.185,0.1895,0.1909,0.1739,0.1739,0.174,0,0.1226,0.1258,0.1281,0.1318,0.1346,0.1383,0.1426,0.1464,0.153,0.1561,0.1591,0.1672,0.1661,0.1693,0.173,0.1729,0.1788,0.1728,0.1841,0.1851,0.1861,0.1904,0.1918,0.1745,0.1744,0.1743,0.1743,0,0.1251,0.1298,0.1316,0.1385,0.1419,0.1456,0.1513,0.1573,0.1632,0.1664,0.1751,0.1754,0.1789,0.1797,0.1791,0.1853,0.1887,0.1865,0.1804,0.1882,0.1923,0.1936,0.1752,0.175,0.1749,0.1747,0,0,0.1257,0.1325,0.1342,0.1382,0.1456,0.1483,0.157,0.1638,0.1695,0.1773,0.1841,0.187,0.1883,0.1884,0.1879,0.1902,0.2009,0.1935,0.1935,0.1976,0.2166,0.2026,0.2026,0.2056,0.2058,0.206,0.2177,0,0.1286,0.1352,0.1383,0.1466,0.1506,0.1563,0.1635,0.1704,0.1777,0.1859,0.1867,0.1938,0.1918,0.1953,0.1978,0.2007,0.2049,0.1981,0.2085,0.2087,0.195,0.2036,0.2067,0.2187,0.219,0.2192,0.2193,0,0.1301,0.1347,0.142,0.1504,0.1529,0.1593,0.1699,0.177,0.1871,0.1928,0.1991,0.203,0.2068,0.205,0.2132,0.2126,0.2162,0.2172,0.2177,0.201,0.1969,0.2086,0.2217,0.2215,0.2213,0.2212,0.221,0,0.1275,0.137,0.1425,0.1456,0.156,0.162,0.1694,0.1799,0.1863,0.1988,0.2051,0.2115,0.2173,0.2224,0.2247,0.2238,0.235,0.2314,0.2218,0.221,0.2256,0.2242,0.2386,0.2386,0.2386,0.2385,0.2385,0,0.1266,0.1321,0.1427,0.1463,0.1543,0.1628,0.1734,0.181,0.1928,0.1996,0.2095,0.2154,0.224,0.2306,0.2311,0.2305,0.2402,0.2234,0.223,0.2299,0.2289,0.2267,0.2252,0.239,0.2389,0.2388,0.2387,0,0.1216,0.1288,0.1355,0.1481,0.1531,0.1594,0.1755,0.1818,0.1951,0.2049,0.2099,0.2233,0.2318,0.2369,0.2445,0.2371,0.2368,0.2348,0.244,0.2437,0.2189,0.2178,0.2246,0.2242,0.2238,0.2235,0.2233,0,0.1181,0.1215,0.135,0.1404,0.1472,0.1592,0.1667,0.1813,0.1876,0.2066,0.2091,0.2245,0.2311,0.2311,0.2372,0.2379,0.2345,0.2339,0.223,0.2186,0.2176,0.2169,0.2163,0.2228,0.2227,0.2226,0.2225,0,0.1121,0.1183,0.1242,0.1347,0.1438,0.1514,0.1642,0.168,0.1837,0.1974,0.2044,0.2093,0.2192,0.223,0.2268,0.2256,0.2325,0.2302,0.2308,0.2206,0.2165,0.2156,0.2154,0.2213,0.2215,0.2216,0.2217,0,0.1082,0.1094,0.1189,0.1269,0.1371,0.1417,0.1492,0.1581,0.1661,0.1862,0.1887,0.2035,0.2175,0.2171,0.2191,0.2181,0.2135,0.2046,0.2064,0.2078,0.1962,0.1881,0.1849,0,0,0,0,0,0.1046,0.106,0.1115,0.1192,0.1282,0.1343,0.1462,0.1534,0.1695,0.1694,0.1784,0.1858,0.1915,0.1997,0.195,0.2105,0.2134,0.204,0.2039,0.2148,0.2161,0.2036,0,0,0,0,0,0,0.1029,0.1075,0.1081,0.1114,0.1156,0.123,0.1298,0.1393,0.1407,0.1579,0.1624,0.175,0.1834,0.1929,0.192,0.194,0.19,0.2135,0.213,0.214,0.2152,0.2163,0.204,0,0,0,0,0]},{"header":{"parameterUnit":"m.s-1","parameterCategory":2,"la1":30.2991,"la2":30.254,"lo1":-89.0895,"lo2":-89.0444,"dy":0.0017,"dx":0.0017,"nx":28,"ny":28,"refTime":"2024-03-21T21:00:00:Z","depth":"4","parameterNumber":3,"parameterNumberName":"V-component_of_CURRENTS"},"data":[0,0,0,0,0,0,0,0,0,0,0,0,0,0,0,0,0,0,0,0,0,0,0,0,0,0,0,0,0,0,0,0,0,0,0,0,0,0,0,0,0,0,0,0,0,0,0,0,0,0,0,0,0,0,0,0,0,0,0.0386,0.0385,0,0.0363,0.0363,0.0363,0.036,0.0361,0.0361,0.0361,0.033,0.0329,0.0329,0,0,0,0,0,0,0,0,0,0,0,0,0,0.0375,0.0375,0.0386,0.0385,0.0385,0.0363,0.0363,0.0363,0.036,0.0361,0.0361,0.0361,0.0331,0.033,0.0328,0,0,0,0,0,0,0,0,0,0,0,0,0,0.0369,0.0376,0.0386,0.0381,0.038,0.0363,0.0363,0.0363,0.036,0.0361,0.0361,0.0361,0.0331,0.033,0.0328,0.0314,0,0,0.0324,0.0323,0,0,0,0,0,0,0,0,0.037,0.037,0.0382,0.0381,0.038,0.0364,0.0348,0.0346,0.036,0.0368,0.0361,0.0361,0.034,0.0338,0.0334,0.0313,0.0311,0.0324,0.0323,0.0322,0.0322,0,0,0,0,0,0,0,0.037,0.0371,0.0377,0.0381,0.038,0.0362,0.0362,0.0347,0.0354,0.0368,0.0367,0.0364,0.034,0.0336,0.0334,0.0311,0.0324,0.0322,0.0322,0.0321,0.0275,0.0275,0,0,0,0,0,0,0.0374,0.0371,0.0378,0.0377,0.0375,0.0362,0.0362,0.037,0.0354,0.0352,0.0364,0.0364,0.0338,0.0335,0.0333,0.0326,0.0322,0.0321,0.032,0.0275,0.0275,0.0275,0,0,0,0,0,0,0.0374,0.0376,0.0379,0.0372,0.0371,0.0362,0.0371,0.0369,0.0371,0.0351,0.0349,0.0368,0.0338,0.0335,0.0321,0.0325,0.032,0.0319,0.0276,0.0275,0.0275,0.0307,0,0,0,0,0,0,0.0374,0.0376,0.0387,0.0373,0.0372,0.0375,0.037,0.0368,0.0368,0.0368,0.0354,0.0351,0.0338,0.0323,0.0319,0.0323,0.0318,0.0276,0.0276,0.0275,0.0306,0.0307,0.0308,0,0,0,0,0,0.0374,0.0388,0.0388,0.0388,0.0386,0.0375,0.0373,0.0367,0.0368,0.037,0.0357,0.0351,0.0316,0.0322,0.0317,0.032,0.0277,0.0276,0.0275,0.0305,0.0307,0.0308,0,0,0,0,0,0,0.0385,0.0389,0.0388,0.0401,0.0391,0.0375,0.0379,0.0372,0.0363,0.0363,0.0347,0.0343,0.0331,0.0318,0.0325,0.0303,0.0295,0.0294,0.032,0.0321,0.0322,0.0346,0.0316,0,0,0,0,0,0.0393,0.0408,0.0398,0.0407,0.0407,0.0394,0.0391,0.0382,0.037,0.0367,0.0358,0.0342,0.0322,0.0317,0.0299,0.029,0.0268,0.0288,0.0289,0.029,0.0305,0.026,0.0259,0.0272,0.0272,0.0272,0,0,0.0402,0.0402,0.0412,0.0411,0.0406,0.041,0.0394,0.0389,0.0387,0.0364,0.0367,0.0345,0.0319,0.0307,0.0301,0.03,0.0273,0.0289,0.029,0.0305,0.0259,0.0258,0.0257,0.0272,0.0272,0.0272,0,0,0.0419,0.0426,0.0444,0.0439,0.043,0.0421,0.0422,0.041,0.0403,0.0394,0.0374,0.0356,0.0337,0.0318,0.0305,0.03,0.0277,0.0294,0.0325,0.028,0.0279,0.0278,0.0245,0.0241,0.0299,0.0299,0.0299,0,0.0426,0.045,0.0444,0.0453,0.0457,0.0431,0.0445,0.0429,0.0411,0.0408,0.04,0.0364,0.0342,0.0323,0.0324,0.0305,0.028,0.0324,0.0283,0.0281,0.0279,0.0246,0.0241,0.03,0.03,0.03,0.03,0,0.0454,0.0473,0.048,0.0492,0.0493,0.0495,0.0477,0.0471,0.046,0.0446,0.0426,0.0389,0.0374,0.0357,0.0343,0.0321,0.0307,0.0286,0.0283,0.028,0.0245,0.0239,0.0302,0.0302,0.0301,0.0301,0,0,0.0471,0.0498,0.0502,0.0519,0.0514,0.0518,0.0514,0.0507,0.0511,0.048,0.0484,0.0441,0.0425,0.0409,0.0379,0.0346,0.0307,0.0322,0.0318,0.0297,0.0217,0.0206,0.0198,0.0278,0.0277,0.0276,0.0197,0,0.0495,0.053,0.0535,0.0568,0.0587,0.057,0.0573,0.0559,0.0543,0.0537,0.0486,0.0479,0.0441,0.0439,0.0396,0.0329,0.0293,0.0331,0.0218,0.0215,0.0211,0.0191,0.0274,0.0192,0.0191,0.019,0.0189,0,0.0526,0.0545,0.0589,0.0617,0.0625,0.0639,0.0649,0.0652,0.0625,0.0609,0.0583,0.0548,0.05,0.0468,0.0351,0.0377,0.031,0.0253,0.0248,0.0227,0.0192,0.0195,0.0177,0.0178,0.0179,0.018,0.0181,0,0.0551,0.0586,0.0628,0.0637,0.066,0.0676,0.069,0.068,0.0695,0.0669,0.067,0.0595,0.057,0.0466,0.0353,0.0352,0.0221,0.0197,0.012,0.0119,0.0141,0.0143,0.0118,0.0118,0.0118,0.0118,0.0119,0,0.0575,0.061,0.0647,0.0668,0.0715,0.0723,0.0771,0.076,0.0768,0.079,0.0723,0.0709,0.0569,0.0479,0.0366,0.0225,0.0223,0.0128,0.0096,0.0155,0.0159,0.0136,0.0139,0.0115,0.0116,0.0117,0.0117,0,0.06,0.0626,0.0679,0.0716,0.0734,0.0775,0.0834,0.0862,0.0859,0.0884,0.0883,0.0795,0.067,0.0523,0.0353,0.0251,0.0113,0.0067,0.0151,0.0124,0.0038,0.0044,-0.003,-0.0031,-0.0032,-0.0033,-0.0034,0,0.0616,0.0648,0.0715,0.0754,0.0778,0.0841,0.088,0.0905,0.094,0.0932,0.0941,0.0842,0.0761,0.0511,0.0349,0.0123,0.0093,0.002,0.0022,0.0047,0.0022,0.003,0.0036,-0.0035,-0.0035,-0.0036,-0.0036,0,0.0641,0.0674,0.0713,0.0789,0.0849,0.0913,0.0974,0.1003,0.1032,0.1032,0.0983,0.0856,0.0713,0.0514,0.0341,0.0179,0.0062,0.001,0.001,0.0011,0.004,0.0018,0.0026,-0.0039,-0.0039,-0.0038,-0.0038,0,0.0658,0.0693,0.0752,0.0818,0.0891,0.0953,0.099,0.1023,0.1056,0.1047,0.1028,0.0871,0.0788,0.0543,0.0382,0.022,0.0175,0.0118,0.0112,0.0114,0.0175,0.0234,0.0188,0,0,0,0,0,0.0662,0.0705,0.0771,0.0843,0.0913,0.096,0.1032,0.1065,0.1094,0.1067,0.1052,0.0918,0.0673,0.0568,0.0405,0.0353,0.0141,0.0153,0.0071,-0.0057,-0.0053,-0.0008,0,0,0,0,0,0,0.0667,0.0731,0.0766,0.0846,0.0898,0.098,0.103,0.1055,0.1044,0.1046,0.0922,0.0869,0.0635,0.0766,0.0398,0.035,0.0272,0.0046,0.0042,-0.0059,-0.0056,-0.0053,-0.0005,0,0,0,0,0]}]]